FLOCK 4Y 15

导读 | 星芒AI

FLOCK 4Y 15 是由 Planet Labs 运营的 Dove 系列小型地球观测卫星之一,属于 Flock 4Y 群组。该卫星主要用于高分辨率光学成像,提供对地表的多光谱图像数据,广泛应用于环境监测、农业管理、灾害评估等领域。卫星采用标准化设计,具备快速部署和低成本优势,支持每日全球重访能力。FLOCK 4Y 15 于 2017 年发射,是 Planet 公司构建大规模遥感星座计划的一部分。

基本信息
目录编号:
55068
目录名称:
FLOCK 4Y 15
国际标识:
2023-001BM
轨道中心:
EARTH
卫星名称:
FLOCK 4Y 15
卫星全名:
--
卫星状态:
已陨落 最后检测时间 2025-09-19
发射日期:
2023-01-03 UTC
国别 :
美国 (US)
星等 :
--
轨道信息
数据来源 国际轨道数据
星历时间: 2025-09-19T09:07:07+0800
轨道信息已过期33天
半长轴: 6552.707km
偏心率: 0.0016344
轨道倾角: 97.348°
近地点辐角 223.705°
升交点赤经 340.187°
平近点角 136.295°
近地点: 163.862km
远地点: 185.282km
周期: 87.981分钟
每日圈数: 16.367099
详细信息
使用方式:
暂无